Location: La Trinit�
(48.1620°N, 3.4512°W)
Time: 03:04:43
(UTC+00:00)

MetOp-B - Pass Details

Date: 08 May 2021
Orbit: 819 x 822 km, 98.7° (Epoch: 13 June)

Event Time Altitude Azimuth Distance (km) Brightness Sun altitude
Exits shadow 21:18:17 13° 176° (S) 2,230 5.9 -14.1°
Maximum altitude 21:23:06 65° 257° (WSW) 901 4.4 -14.6°
Drops below altitude 10° 21:28:28 10° 340° (NNW) 2,429 7.7 -15.2°
Sets 21:30:51 0° 344° (NNW) 3,365 8.6 -15.5°
